IRIDIUM 23 [P]

Last updated on Wed Mar 28 2018 01:19:56 GMT+0100 (British Summer Time)

1 24906U 97043D 18086.87553626 .19764642 -20654-5 29789-3 0 9999 2 24906 86.3745 133.0244 0036215 207.4806 152.7376 16.44735229 79030

Satellite not in orbit